Lid_Strength_Index
0 0 -0 -0 -1 -1 -1 -0 0 1 -0 0 -1 -1 -1 -0 1 4 7 5 5 1 1 6 10 9 10 11 9 10 14 16 14 14 13 10 10 8 8 8 7 6 6 5 3
1 1 -0 -0 -0 -1 -1 -1 -0 0 1 -0 -0 -0 -1 -1 2 6 3 2 1 1 6 10 11 9 13 12 10 12 16 14 12 13 13 10 10 10 9 8 8 8 5 3 3
-0 0 -0 -0 -0 -1 -1 -1 -1 -1 0 0 -1 -1 -0 -0 5 5 1 2 1 1 4 7 8 9 13 13 12 12 14 13 12 10 8 9 11 9 10 10 7 7 6 4 4
-0 -1 -1 -0 -0 -0 -1 -1 -1 -1 -1 -0 0 -1 -1 2 12 4 -1 1 1 4 6 9 9 11 13 14 11 13 10 11 10 8 8 10 8 10 9 8 7 5 5 4 5
0 0 -0 -0 -1 -1 -1 -1 -1 -1 -1 -1 -1 0 3 6 6 2 -0 0 3 5 7 9 11 12 15 14 12 12 12 10 10 9 9 8 10 10 9 7 7 5 5 5 5
1 0 0 0 -0 -0 -1 -1 -1 -1 -1 -1 -1 0 5 9 2 1 2 2 4 5 6 9 10 10 13 14 13 13 11 11 11 11 10 9 10 9 10 7 6 5 5 5 5
1 1 1 1 0 -0 -1 -1 -1 -1 -1 -1 -1 1 5 8 3 2 2 3 2 3 6 6 9 9 11 13 11 11 13 13 12 11 11 10 13 11 9 8 9 6 6 5 5
1 1 1 1 0 0 -0 -1 -1 -1 -1 -1 -1 2 8 3 3 3 2 2 2 1 4 5 5 8 10 11 13 15 15 17 14 12 11 12 16 13 11 11 10 10 7 6 5
-0 1 1 0 0 0 0 -1 -1 -2 -1 -1 2 3 8 2 6 4 3 4 3 2 3 3 6 10 11 15 17 17 21 19 16 13 12 13 16 13 12 13 13 13 12 9 7
0 -0 -1 -0 -1 -2 -1 -2 -1 -1 -0 -0 2 6 6 7 5 5 3 3 4 4 5 6 8 13 14 18 21 19 20 19 18 16 14 14 15 14 13 13 13 13 13 13 12
-0 -0 -1 -0 -1 -2 -1 1 4 5 4 6 7 7 6 4 3 5 4 3 5 6 11 8 13 16 14 13 15 15 17 19 18 16 16 15 14 13 12 14 13 14 14 14 13
-1 -1 -1 -1 -2 -1 0 4 5 4 8 4 4 5 5 4 7 5 4 8 8 11 9 11 13 12 10 11 13 15 17 18 16 14 16 18 16 14 14 14 14 13 14 14 15
-1 -1 -1 -1 -1 -0 2 3 1 2 9 7 5 5 5 5 7 7 5 7 9 11 11 13 11 9 12 12 14 15 16 16 17 14 15 17 19 17 15 14 14 13 13 14 14
-1 -1 -1 -1 2 1 3 1 0 1 13 12 8 6 5 4 8 4 4 7 9 11 10 11 9 10 12 13 13 16 12 13 15 15 19 18 24 20 18 17 16 14 14 12 12
-1 -1 -1 -1 3 4 2 0 1 3 20 12 8 3 5 8 7 7 3 6 10 11 11 13 12 11 12 12 11 14 12 13 14 16 18 19 21 20 18 18 16 14 14 13 12
-1 -1 -1 0 1 1 0 1 3 14 21 15 8 9 9 8 8 7 7 5 6 10 10 12 9 9 10 9 10 10 13 14 16 17 21 19 19 22 18 17 15 13 14 13 12
-1 -1 -0 0 4 0 0 4 13 18 15 15 12 9 10 10 9 9 10 11 13 15 15 13 13 11 10 12 10 11 14 22 22 24 23 19 20 20 16 14 15 13 12 12 11
-1 -1 -0 -0 -0 -0 2 9 19 20 21 11 10 10 12 11 10 10 12 12 10 12 14 16 18 12 10 11 13 12 14 19 24 23 21 18 20 18 14 12 12 12 12 11 11
-1 2 2 1 -1 1 7 14 18 18 11 12 11 13 13 11 11 12 13 12 10 10 15 16 16 11 10 10 10 13 14 13 17 23 22 19 18 15 13 12 11 11 11 12 12
3 3 4 0 -0 3 9 13 15 11 9 10 16 13 18 13 14 13 13 11 11 9 9 12 16 11 10 9 9 11 11 16 17 25 26 20 20 19 15 14 12 12 12 11 11
4 6 3 -0 1 7 13 13 16 9 9 13 13 14 14 14 12 13 14 11 10 9 8 11 13 13 11 13 13 13 14 13 14 18 22 24 21 17 15 14 14 12 11 12 11
4 10 2 1 9 10 14 13 8 10 9 10 10 11 15 13 15 14 13 11 8 9 12 10 13 16 14 11 9 10 13 12 16 21 20 19 19 14 13 13 13 13 12 12 12
7 6 1 2 13 17 12 11 10 10 12 11 12 10 10 12 15 13 12 9 8 9 11 10 14 17 16 13 11 13 12 12 12 13 17 19 19 13 13 13 13 12 13 14 13
9 10 7 6 9 14 16 15 12 9 9 9 9 9 11 12 11 15 12 10 8 8 7 8 13 16 19 15 13 15 13 12 14 17 16 15 16 14 14 13 13 12 14 15 16
12 12 11 12 11 13 11 12 12 13 10 10 13 12 12 15 13 17 12 11 9 8 8 10 15 14 14 13 13 16 14 13 14 14 16 17 16 14 13 13 13 13 13 15 17
12 11 11 17 10 12 14 13 13 13 11 12 13 11 11 17 12 13 11 11 12 9 10 9 16 13 14 13 13 17 14 15 15 15 15 15 16 12 11 12 15 16 16 17 17
8 8 8 9 12 13 14 12 11 11 10 9 11 11 12 10 10 9 9 9 9 10 11 12 15 20 19 13 14 18 15 14 14 14 15 19 15 13 14 14 18 18 18 18 18